Location: Aubervilles
(48.9167°N, 2.3833°E)
Time: 11:07:31
(UTC+00:00)

Cosmos 44 Rocket - Pass Details

Date: 03 February 2023
Orbit: 646 x 742 km, 65.1° (Epoch: 28 March)

Event Time Altitude Azimuth Distance (km) Brightness Sun altitude
Rises 19:44:20 0° 222° (SW) 2,957 7.0 -28.7°
Reaches altitude 10° 19:46:36 10° 224° (SW) 2,057 6.1 -29.0°
Enters shadow 19:49:28 37° 232° (SW) 1,018 4.4 -29.5°
